Location: Asheville, NC
(35.6000°N, 82.5500°W)
Time: 00:05:40
(UTC-04:00)

Vanguard 3 - All Passes

Search period start: 23 October 2017 00:00
Search period end: 02 November 2017 00:00
Orbit: 510 x 3263 km, 33.3° (Epoch: 22 October)

Date Brightness Start Highest point End Pass type
(mag) Time Alt. Az. Time Alt. Az. Time Alt. Az.
23 Oct - 02:04:14 10° SSW 02:19:51 32° SSE 02:31:43 10° E visible
23 Oct - 04:17:45 10° SW 04:34:54 59° SSE 04:45:15 10° E visible
23 Oct - 06:35:01 10° W 06:49:04 78° S 06:56:40 10° E visible
23 Oct - 08:52:18 10° W 09:01:48 61° SSW 09:07:11 10° ESE daylight
23 Oct - 11:08:58 10° WSW 11:12:30 16° SW 11:15:18 10° S daylight
24 Oct - 00:51:09 10° S 01:04:05 22° SE 01:15:15 10° E visible
24 Oct - 03:01:33 10° SW 03:19:16 48° SSE 03:31:18 10° E visible
24 Oct - 05:17:38 10° WSW 05:34:10 73° S 05:43:31 10° E visible
24 Oct - 07:35:32 10° W 07:47:52 76° S 07:54:31 10° ESE daylight
24 Oct - 09:52:24 10° W 09:59:38 35° SSW 10:04:13 10° SSE daylight
24 Oct - 23:42:08 10° SSE 23:48:24 12° SE 23:54:26 10° ESE night (unlit)
25 Oct - 01:46:28 10° SSW 02:03:23 37° SSE 02:16:31 10° E visible
25 Oct - 04:00:32 10° WSW 04:18:44 64° SSE 04:29:59 10° E visible
25 Oct - 06:18:11 10° W 06:33:19 80° S 06:41:34 10° E visible
25 Oct - 08:35:53 10° W 08:46:16 57° SSW 08:52:05 10° SE daylight
25 Oct - 10:53:30 10° WSW 10:56:51 14° SW 10:59:34 10° SSW daylight
26 Oct - 00:32:59 10° S 00:47:30 26° SE 01:00:19 10° E visible
26 Oct - 02:44:12 10° SW 03:02:51 54° SSE 03:15:55 10° E visible
26 Oct - 05:00:38 10° WSW 05:18:11 77° S 05:28:18 10° E visible
26 Oct - 07:18:51 10° W 07:32:14 74° SSW 07:39:27 10° ESE visible
26 Oct - 09:36:14 10° W 09:44:01 32° SW 09:48:56 10° SSE daylight
26 Oct - 23:22:16 10° SSE 23:31:50 16° SE 23:41:09 10° ESE night (unlit)
27 Oct - 01:28:59 10° SSW 01:46:46 42° SSE 02:01:05 10° E visible
27 Oct - 03:43:26 10° WSW 04:02:27 69° SSE 04:14:38 10° E visible
27 Oct - 06:01:20 10° W 06:17:29 81° S 06:26:26 10° E visible
27 Oct - 08:19:21 10° W 08:30:37 54° SSW 08:36:56 10° SE daylight
27 Oct - 10:38:04 10° WSW 10:41:08 13° SW 10:43:40 10° SSW daylight
28 Oct - 00:15:15 10° SSW 00:30:47 30° SE 00:45:00 10° E visible
28 Oct - 02:27:01 10° SW 02:46:19 59° SSE 03:00:25 10° E visible
28 Oct - 04:43:41 10° WSW 05:02:05 80° S 05:13:01 10° E visible
28 Oct - 07:02:05 10° W 07:16:29 72° SSW 07:24:19 10° ESE visible
28 Oct - 09:19:59 10° W 09:28:18 30° SW 09:33:34 10° SSE daylight
28 Oct - 23:03:43 10° S 23:15:08 19° SE 23:26:36 10° E visible
29 Oct - 01:11:45 10° SW 01:30:03 47° SSE 01:45:29 10° E visible
29 Oct - 03:26:26 10° WSW 03:46:04 74° SSE 03:59:11 10° E visible
29 Oct - 05:44:26 10° W 06:01:33 81° S 06:11:13 10° E visible
29 Oct - 08:02:43 10° W 08:14:52 51° SSW 08:21:43 10° SE daylight
29 Oct - 10:22:46 10° WSW 10:25:17 12° SW 10:27:29 10° SSW daylight
29 Oct - 23:57:52 10° SSW 00:13:57 35° SE 00:29:25 10° E visible
30 Oct - 02:10:02 10° SW 02:29:41 64° SSE 02:44:49 10° E visible
30 Oct - 04:26:47 10° W 04:45:53 82° S 04:57:40 10° E visible
30 Oct - 06:45:15 10° W 07:00:37 69° SSW 07:09:07 10° ESE visible
30 Oct - 09:03:40 10° W 09:12:27 28° SW 09:18:06 10° SSE daylight
30 Oct - 22:45:51 10° S 22:58:20 22° SE 23:11:24 10° E visible
31 Oct - 00:54:44 10° SW 01:13:13 52° SSE 01:29:42 10° E visible
31 Oct - 03:09:34 10° WSW 03:29:36 77° SSE 03:43:39 10° E visible
31 Oct - 05:27:33 10° W 05:45:30 80° S 05:55:57 10° ESE visible
31 Oct - 07:46:02 10° W 07:58:58 48° SSW 08:06:24 10° SE daylight
31 Oct - 10:07:54 10° WSW 10:09:22 10° SW 10:10:43 10° SW daylight
31 Oct - 21:39:01 10° SE 21:43:16 11° SE 21:47:41 10° ESE visible
31 Oct - 23:40:47 10° SSW 23:57:03 39° SE 00:13:34 10° E visible
01 Nov - 01:53:13 10° WSW 02:12:57 68° SSE 02:29:04 10° E visible
01 Nov - 04:09:55 10° W 04:29:35 83° S 04:42:16 10° E visible
01 Nov - 06:28:23 10° W 06:44:37 66° SSW 06:53:50 10° ESE visible
01 Nov - 08:47:18 10° W 08:56:29 26° SW 09:02:32 10° S daylight
01 Nov - 22:28:28 10° S 22:41:28 26° SE 22:55:46 10° E visible
